Regional Weather Roundup
Issued by NWS Green Bay, WI

Home | Current Version | Previous Version | Graphics & Text | Print | Product List | Glossary Off
Versions: 1 2 3 4 5 6 7 8 9 10 11 12 13 14 15 16 17 18 19 20 21 22 23 24 25 26 27 28 29 30 31 32 33 34 35 36 37 38 39 40 41 42 43 44 45 46 47 48 49 50

000
ASUS43 KGRB 080311
RWRGRB

NORTH-CENTRAL AND NORTHEAST WISCONSIN REGIONAL WEATHER ROUNDUP
NATIONAL WEATHER SERVICE GREEN BAY WI
900 PM CST WED DEC 07 2016

WIZ005-009-010>012-018-019-080400-
NORTH CENTRAL WISCONSIN

CITY           SKY/WX    TMP DP  RH WIND       PRES   REMARKS
IRONWOOD       NOT AVBL
MANITOWISH WTR LGT SNOW  15  13  90 W15       29.85S WCI   0
ARBOR VITAE    FLURRIES  17  12  81 W15G24    29.87R WCI   2
EAGLE RIVER    LGT SNOW  17  10  77 W14G23    29.85R WCI   2
LAND O LAKES   LGT SNOW  17  13  84 W8        29.85S WCI   6
RHINELANDER    CLOUDY    18  11  74 W16G23    29.88S WCI   3
PHILLIPS       FLURRIES  16  11  83 W12G18    29.91R WCI   2
ANTIGO         FLURRIES  16  11  80 W14G21    29.91R WCI   2
TOMAHAWK       FLURRIES  16  11  79 W9G17     29.91S WCI   5
MERRILL        FLURRIES  17  11  75 W17       29.94S WCI   1
$$

WIZ013-073-080400-
NORTHEAST WISCONSIN

CITY           SKY/WX    TMP DP  RH WIND       PRES   REMARKS
IRON MOUNTAIN  NOT AVBL
MARINETTE      NOT AVBL
OCONTO         CLOUDY    23  12  63 W17G26    29.96R WCI   9
$$

WIZ017-030-035>037-045-080400-
CENTRAL WISCONSIN

CITY           SKY/WX    TMP DP  RH WIND       PRES   REMARKS
MEDFORD        FLURRIES  15   9  76 W14G23    29.94S WCI   1
WAUSAU         FLURRIES  18  11  74 W13G23    29.95S WCI   5
MOSINEE        FLURRIES  18  12  79 W16G25    29.97S WCI   3
MARSHFIELD     CLOUDY    17  10  74 W18G26    29.97F WCI   1
WISC RAPIDS    CLOUDY    19  12  74 W13       30.03S WCI   6
STEVENS POINT  FLURRIES  17  10  73 W15G22    30.00S WCI   3
WAUPACA        CLOUDY    23  13  66 W16G22    30.02R WCI   9
SHAWANO        CLOUDY    23  13  65 W14G24    29.97R
CLINTONVILLE   CLOUDY    21  12  68 W18G25    29.99R WCI   6
WAUTOMA        NOT AVBL
$$

WIZ038-039-048-051-080400-
FOX VALLEY

CITY           SKY/WX    TMP DP  RH WIND       PRES   REMARKS
NWS GREEN BAY  CLOUDY    24  14  65 W14G25    29.99R
APPLETON       CLOUDY    21  10  63 W18G26    29.99R WCI   6
OSHKOSH        CLOUDY    21  12  68 W15G22    30.02R WCI   8
FOND DU LAC    CLOUDY    22  11  62 W14G21    30.04R WCI   9
$$

WIZ022-050-052-080400-
EAST CENTRAL WISCONSIN

CITY           SKY/WX    TMP DP  RH WIND       PRES   REMARKS
EPHRAIM        CLOUDY    23  14  68 W14G23    29.91R
WASHINGTON ISL CLOUDY    24  15  68 W15G25    29.90S
STURGEON BAY   CLOUDY    23  14  68 W17G25    29.95R WCI   9
MANITOWOC      FLURRIES  23  14  68 MISG      30.01R
SHEBOYGAN      FLURRIES  22  14  71 W18       30.03R WCI   7
$$

LMZ563-521-522-541>543-080400-
LAKESHORE

STATION/POSITION TIME  TEMP    WIND        PRES    VSBY  WAVE
                       AIR SEA DIR/SP/G                  HT/PER
                 (UTC) (F)     (DEG/KT/KT) (MB)    (MI)  (FT/S)
SHEBOYGAN LKSHOR 0300   22     250/ 16/ 24 1017.9R
KEWAUNEE LKSHORE 0248   24     290/ 13/ 22 1014.5F
NORTHPORT PIER   0249   25     250/  5/ 19 1012.9S
SISTER BAY LKSHO 0236   26     290/ 24/ 28   N/A
CHAMBERS ISLAND  0240   24     240/ 13/ 21 1012.9R
MENOMINEE LKSHOR 0248   24     230/ 14/ 19 1013.1R
$$




USA.gov is the U.S. government's official web portal to all federal, state and local government web resources and services.